Location: Buchdorf
(48.7842°N, 10.8275°E)
Time: 21:00:00
(UTC+00:00)

N. Korean satellite - Pass Details

Date: 05 March 2021
Orbit: 452 x 499 km, 97.2° (Epoch: 15 April)

Event Time Altitude Azimuth Distance (km) Brightness Sun altitude
Rises 04:30:08 0° 17° (NNE) 2,528 10.5 -14.0°
Reaches altitude 10° 04:32:14 10° 23° (NNE) 1,653 9.6 -13.7°
Maximum altitude 04:35:42 50° 100° (E) 617 7.5 -13.1°
Drops below altitude 10° 04:39:12 10° 177° (S) 1,665 9.3 -12.6°
Sets 04:41:19 0° 182° (S) 2,548 10.1 -12.2°
